Location: Bieg
(49.3499°N, 10.3835°E)
Time: 10:07:56
(UTC+00:00)

Cosmos 2360 Rocket - Pass Details

Date: 23 May 2024
Orbit: 832 x 846 km, 71.0° (Epoch: 20 June)

Event Time Altitude Azimuth Distance (km) Brightness Sun altitude
Rises 01:57:29 0° 329° (NNW) 3,416 5.6 -11.3°
Reaches altitude 10° 01:59:57 10° 326° (NW) 2,478 4.9 -11.0°
Maximum altitude 02:05:33 61° 247° (WSW) 958 2.2 -10.4°
Drops below altitude 10° 02:11:06 10° 169° (SSE) 2,461 4.3 -9.9°
Sets 02:13:34 0° 166° (SSE) 3,391 5.0 -9.6°
